Retour au catalogue

DMSP 5D-2 F13 DEB

ActifSSO
NORAD 40442·DEBRIS·🇺🇸 United States

Lancé Mar 24, 1995 depuis Vandenberg Space Force Base

Loading…

Prochains Passages (prochaines 24 heures)

TLE

FraisSource: Space-Track

Époque: Sep 14, 2026, 00:08 UTC

1 40442U 95015AU  26257.00561454  .00000048  00000-0  47523-4 0  9998
2 40442  98.8544 269.7619 0011035   7.9640 352.1707 14.15022772595500

Suivez DMSP 5D-2 F13 DEB en temps réel avec AllMySat

Download on the App Store